Regional Weather Roundup
Issued by NWS

Home | Current Version | Previous Version | Graphics & Text | Print | Product List | Glossary On
Versions: 1 2 3 4 5 6 7 8 9 10 11 12 13 14 15 16 17 18 19 20 21 22 23 24 25 26 27 28 29 30 31 32 33 34 35 36 37 38 39 40 41 42 43 44 45 46 47 48 49 50
000
ASUS43 KFSD 190610
RWRSD

WEATHER ROUNDUP FOR SOUTH DAKOTA
NATIONAL WEATHER SERVICE SIOUX FALLS SD
1200 AM CST SUN FEB 19 2017

NOTE: "FAIR" INDICATES FEW OR NO CLOUDS BELOW 12,000 FEET WITH NO
SIGNIFICANT WEATHER AND/OR OBSTRUCTIONS TO VISIBILITY.


SDZ001>005-009-010-012>017-190700-
NORTHWEST AND NORTH CENTRAL SOUTH DAKOTA

CITY           SKY/WX    TMP DP  RH WIND       PRES   REMARKS
BUFFALO          N/A     44  34  67 CALM      29.53F
FAITH            N/A     40  33  76 S16       29.61S
MOBRIDGE       PTCLDY    39  31  72 SE13      29.63S
$$

SDZ012>016-024>037-041>051-057-063-072>074-190700-
SOUTHWEST AND SOUTH CENTRAL SOUTH DAKOTA

CITY           SKY/WX    TMP DP  RH WIND       PRES   REMARKS
RAPID CTY ARPT MOCLDY    47  30  51 S7        29.63S
PIERRE         CLOUDY    45  30  55 SE10      29.67S
CUSTER         CLOUDY    43  26  51 S3        29.67F
ELLSWORTH AFB  PTCLDY    48  31  50 S5        29.62S
PHILIP         CLOUDY    51  33  50 W6        29.65R
PINE RIDGE     CLOUDY    49  33  54 S23       29.65S
SPEARFISH      MOCLDY    43  30  61 S8        29.63S
WINNER         FAIR      52  32  46 S15       29.69F
$$

SDZ004>011-016>023-039-040-190700-
NORTHEAST SOUTH DAKOTA

CITY           SKY/WX    TMP DP  RH WIND       PRES   REMARKS
ABERDEEN       CLOUDY    38  33  82 S12       29.74R
WATERTOWN      CLOUDY    38  35  89 S8        29.78R
BROOKINGS      CLOUDY    40  37  89 SE12      29.79S
SISSETON         N/A     35  35 100 S6        29.78S
$$

SDZ017-020-022-023-036>040-048>070-190700-
SOUTHEAST SOUTH DAKOTA

CITY           SKY/WX    TMP DP  RH WIND       PRES   REMARKS
SIOUX FALLS    MOCLDY    36  35  96 CALM      29.81S
HURON          PTCLDY    39  35  86 SE8       29.75S
CHAMBERLAIN    CLOUDY    42  36  79 SE9       29.72F
MITCHELL       CLOUDY    41  36  82 SE10      29.77R
YANKTON        PTCLDY    39  32  75 E6        29.79S
$$

ABBREVIATIONS USED IN REMARKS
   TC - TEMPERATURE IN CELSIUS
  WCI - WIND CHILL INDEX
   HX - HEAT INDEX
  VSB - VISIBILITY





USA.gov is the U.S. government's official web portal to all federal, state and local government web resources and services.